Latest Coastal Weather Observations for Truscott

IDW60701

Issued at 4:22 pm WST Thursday 28 July 2016 (issued every 10 minutes, with the page automatically refreshed every 10 minutes)

About coastal observations | Map of coastal stations | Coastal observations for WA | Marine services | Other Formats
Station Details ID: 001020 Name: TRUSCOTT Lat: -14.09 Lon: 126.39 Height: 51.0 m
Data from the previous 72 hours. | See also: Recent months at Truscott
Date/Time
WST
Temp
°C
Wind Pressure Rain since
9am
mm
Weather Cloud Vis
km
Sea
Height
m
Swell
Dir  Spd
kts
Gust
kts
hPa Trend Height
m
Period
s
Dir
28/04:00pm 30.5 E 7 - 1012.4 - 0.0 - - 10 - - - -
28/03:30pm 31.0 E 7 - 1012.0 - 0.0 - - 10 - - - -
28/03:00pm 30.5 ENE 8 - 1012.3 - 0.0 - - 10 - - - -
28/02:30pm 31.0 E 9 - 1012.0 - 0.0 - - 10 - - - -
28/02:00pm 30.7 E 9 - 1012.5 - 0.0 - - 10 - - - -
28/01:30pm 30.0 E 9 - 1013.0 - 0.0 - - 10 - - - -
28/01:00pm 30.0 ENE 11 - 1013.4 - 0.0 - - 10 - - - -
28/12:30pm 30.0 E 9 - 1014.0 - 0.0 - - 10 - - - -
28/12:00pm 29.0 E 12 - 1014.6 - 0.0 - - 10 - - - -
28/11:30am 29.0 E 11 22 1015.0 - 0.0 - - 10 - - - -
28/11:00am 28.5 E 12 - 1015.6 - 0.0 - - 10 - - - -
28/10:30am 28.0 E 13 - 1016.0 - 0.0 - - 10 - - - -
28/10:00am 27.4 E 11 - 1016.3 - 0.0 - - 10 - - - -
28/09:30am 27.0 ESE 12 - 1016.0 - 0.0 - - 10 - - - -
28/09:00am 26.3 ESE 13 - 1016.9 - 0.0 - - 10 - - - -
28/08:30am 26.0 ESE 12 22 1017.0 - 0.0 - - 9 - - - -
28/08:00am 25.2 ESE 12 - 1017.0 - 0.0 - - 9 - - - -
28/07:30am 25.0 ESE 10 - 1017.0 - 0.0 - - 10 - - - -
28/07:00am 23.9 ESE 10 - 1016.8 - 0.0 - - 10 - - - -
28/06:30am 23.0 ESE 8 - 1016.0 - 0.0 - - 10 - - - -
28/06:00am 23.1 ESE 7 - 1016.0 - 0.0 - - 10 - - - -
28/05:30am 23.0 SE 6 - 1015.0 - 0.0 - - 10 - - - -
28/05:00am 23.5 SE 8 - 1015.1 - 0.0 - - 7 - - - -
28/04:30am 24.0 ESE 7 - 1015.0 - 0.0 - - 10 - - - -
28/04:00am 23.7 ESE 7 - 1014.9 - 0.0 - - 10 - - - -
28/03:30am 24.0 SE 7 - 1014.0 - 0.0 - - 10 - - - -
28/03:00am 24.5 ESE 9 - 1014.5 - 0.0 - - 10 - - - -
28/02:30am 24.0 SE 8 - 1014.0 - 0.0 - - 10 - - - -
28/02:00am 23.1 SE 5 - 1014.5 - 0.0 - - 9 - - - -
28/01:30am 23.0 ESE 5 - 1014.0 - 0.0 - - 10 - - - -
28/01:00am 19.4 SSE 3 - 1014.6 - 0.0 - - 8 - - - -
28/12:30am 20.0 CALM 0 - 1014.0 - 0.0 - - 10 - - - -
28/12:00am 21.4 SSE 4 - 1014.7 - 0.0 - - 10 - - - -
 
Date/Time
WST
Temp
°C
Wind Pressure Rain since
9am
mm
Weather Cloud Vis
km
Sea
Height
m
Swell
Dir  Spd
kts
Gust
kts
hPa Trend Height
m
Period
s
Dir
27/11:30pm 21.0 SSE 3 - 1014.0 - 0.0 - - 10 - - - -
27/11:00pm 22.5 SE 3 - 1014.8 - 0.0 - - 10 - - - -
27/10:30pm 23.0 SE 4 - 1015.0 - 0.0 - - 10 - - - -
27/10:00pm 23.1 SE 4 - 1014.9 - 0.0 - - 10 - - - -
27/09:30pm 24.0 SE 4 - 1015.0 - 0.0 - - 10 - - - -
27/09:00pm 23.7 E 4 - 1014.9 - 0.0 - - 10 - - - -
27/08:30pm 24.0 E 4 - 1015.0 - 0.0 - - 10 - - - -
27/08:00pm 24.9 ENE 5 - 1014.7 - 0.0 - - 10 - - - -
27/07:30pm 26.0 E 4 - 1014.0 - 0.0 - - 10 - - - -
27/07:00pm 26.1 ENE 5 - 1013.7 - 0.0 - - 10 - - - -
27/06:30pm 26.0 NE 5 - 1013.0 - 0.0 - - 10 - - - -
27/06:00pm 27.4 ENE 4 - 1012.9 - 0.0 - - 10 - - - -
27/05:30pm 29.0 ENE 6 - 1012.0 - 0.0 - - 10 - - - -
27/05:00pm 29.8 ENE 8 - 1012.1 - 0.0 - - 10 - - - -
27/04:30pm 31.0 E 8 - 1012.0 - 0.0 - - 10 - - - -
27/04:00pm 31.4 ENE 10 - 1011.6 - 0.0 - - 10 - - - -
27/03:30pm 32.0 ENE 9 - 1011.0 - 0.0 - - 10 - - - -
27/03:00pm 31.8 E 12 - 1011.3 - 0.0 - - 10 - - - -
27/02:30pm 32.0 E 14 - 1011.0 - 0.0 - - 10 - - - -
27/02:00pm 32.2 E 13 - 1011.5 - 0.0 - - 10 - - - -
27/01:30pm 32.0 E 12 22 1011.0 - 0.0 - - 10 - - - -
27/01:00pm 32.4 E 14 - 1011.9 - 0.0 - - 10 - - - -
27/12:30pm 32.0 E 13 - 1012.0 - 0.0 - - 10 - - - -
27/12:21pm 32.0 E 15 25 1012.0 - 0.0 - - 10 - - - -
27/12:00pm 32.3 E 13 - 1012.8 - 0.0 - - 10 - - - -
27/11:30am 31.0 ESE 12 - 1013.0 - 0.0 - - 10 - - - -
27/11:01am 30.0 E 15 25 1014.0 - 0.0 - - 10 - - - -
27/11:00am 30.7 E 14 25 1014.0 - 0.0 - - 10 - - - -
27/10:30am 30.0 E 13 - 1014.0 - 0.0 - - 10 - - - -
27/10:00am 29.6 E 14 - 1014.9 - 0.0 - - 10 - - - -
27/09:30am 29.0 E 13 - 1015.0 - 0.0 - - 10 - - - -
27/09:00am 28.3 E 11 21 1015.2 - 0.0 - - 10 - - - -
27/08:30am 28.0 E 11 - 1015.0 - 0.0 - - 10 - - - -
27/08:00am 26.7 ESE 9 - 1015.0 - 0.0 - - 10 - - - -
27/07:30am 25.0 SE 4 - 1015.0 - 0.0 - - 10 - - - -
27/07:00am 23.5 SE 4 - 1014.7 - 0.0 - - 10 - - - -
27/06:30am 21.0 S 3 - 1014.0 - 0.0 - - 10 - - - -
27/06:00am 20.7 S 3 - 1013.9 - 0.0 - - 10 - - - -
27/05:30am 20.0 S 4 - 1013.0 - 0.0 - - 10 - - - -
27/05:00am 20.4 SSE 3 - 1013.2 - 0.0 - - 10 - - - -
27/04:30am 21.0 S 4 - 1013.0 - 0.0 - - 10 - - - -
27/04:00am 21.0 S 4 - 1013.0 - 0.0 - - 10 - - - -
27/03:30am 21.0 S 4 - 1013.0 - 0.0 - - 10 - - - -
27/03:00am 20.6 S 4 - 1012.5 - 0.0 - - 10 - - - -
27/02:30am 21.0 S 4 - 1012.0 - 0.0 - - 10 - - - -
27/02:00am 20.9 SSW 4 - 1012.7 - 0.0 - - 10 - - - -
27/01:30am 21.0 SSW 2 - 1013.0 - 0.0 - - 10 - - - -
27/01:00am 22.0 SE 1 - 1012.9 - 0.0 - - 10 - - - -
27/12:30am 21.0 CALM 0 - 1013.0 - 0.0 - - 10 - - - -
27/12:00am 21.4 CALM 0 - 1013.3 - 0.0 - - 10 - - - -
 
Date/Time
WST
Temp
°C
Wind Pressure Rain since
9am
mm
Weather Cloud Vis
km
Sea
Height
m
Swell
Dir  Spd
kts
Gust
kts
hPa Trend Height
m
Period
s
Dir
26/11:30pm 21.0 CALM 0 - 1013.0 - 0.0 - - 10 - - - -
26/11:00pm 21.8 CALM 0 - 1013.5 - 0.0 - - 10 - - - -
26/10:30pm 22.0 CALM 0 - 1013.0 - 0.0 - - 10 - - - -
26/10:00pm 21.9 CALM 0 - 1013.6 - 0.0 - - 8 - - - -
26/09:30pm 22.0 CALM 0 - 1013.0 - 0.0 - - 10 - - - -
26/09:00pm 22.9 CALM 0 - 1013.6 - 0.0 - - 10 - - - -
26/08:30pm 24.0 NE 3 - 1013.0 - 0.0 - - 10 - - - -
26/08:00pm 24.2 E 2 - 1013.4 - 0.0 - - 7 - - - -
26/07:30pm 25.0 E 3 - 1013.0 - 0.0 - - 10 - - - -
26/07:00pm 25.8 ENE 4 - 1012.8 - 0.0 - - 8 - - - -
26/06:30pm 26.0 NE 3 - 1012.0 - 0.0 - - 10 - - - -
26/06:00pm 27.1 NNE 4 - 1011.7 - 0.0 - - 10 - - - -
26/05:30pm 28.0 N 5 - 1011.0 - 0.0 - - 10 - - - -
26/05:00pm 28.9 N 7 - 1010.7 - 0.0 - - 10 - - - -
26/04:30pm 30.0 N 9 - 1010.0 - 0.0 - - 10 - - - -
26/04:00pm 30.3 N 10 - 1009.9 - 0.0 - - 10 - - - -
26/03:30pm 31.0 NNE 12 - 1009.0 - 0.0 - - 10 - - - -
26/03:00pm 31.9 NNE 10 - 1009.5 - 0.0 - - 10 - - - -
26/02:30pm 32.0 N 11 - 1009.0 - 0.0 - - 10 - - - -
26/02:00pm 31.8 N 9 - 1009.9 - 0.0 - - 10 - - - -
26/01:30pm 31.0 N 11 - 1010.0 - 0.0 - - 10 - - - -
26/01:00pm 33.4 ENE 9 - 1010.4 - 0.0 - - 10 - - - -
26/12:30pm 33.0 E 8 - 1011.0 - 0.0 - - 10 - - - -
26/12:00pm 33.0 E 7 - 1011.4 - 0.0 - - 10 - - - -
26/11:30am 32.0 E 9 - 1012.0 - 0.0 - - 10 - - - -
26/11:00am 32.1 E 8 - 1012.5 - 0.0 - - 10 - - - -
26/10:30am 32.0 E 8 - 1013.0 - 0.0 - - 10 - - - -
26/10:00am 31.0 E 8 - 1013.3 - 0.0 - - 10 - - - -
26/09:30am 30.0 ESE 7 - 1013.0 - 0.0 - - 10 - - - -
26/09:00am 29.2 ESE 10 - 1013.8 - 0.0 - - 10 - - - -
26/08:30am 28.0 SE 7 - 1014.0 - 0.0 - - 10 - - - -
26/08:00am 26.8 SSE 4 - 1013.8 - 0.0 - - 10 - - - -
26/07:30am 24.0 SSE 3 - 1013.0 - 0.0 - - 10 - - - -
26/07:00am 22.7 SE 3 - 1013.5 - 0.0 - - 10 - - - -
26/06:30am 21.0 SE 4 - 1013.0 - 0.0 - - 7 - - - -
26/06:22am 21.0 SSE 3 - 1013.0 - 0.0 - - 7 - - - -
26/06:07am 20.0 SSE 3 - 1013.0 - 0.0 - - 5 - - - -
26/06:00am 20.5 SSE 3 - 1013.0 - 0.0 - - 8 - - - -
26/05:42am 21.0 SE 3 - 1013.0 - 0.0 - - 7 - - - -
26/05:30am 22.0 S 4 - 1012.0 - 0.0 - - 5 - - - -
26/05:17am 22.0 S 4 - 1012.0 - 0.0 - - 5 - - - -
26/05:00am 21.9 S 2 - 1012.3 - 0.0 - - 10 - - - -
26/04:51am 22.0 S 3 - 1012.0 - 0.0 - - 10 - - - -
26/04:40am 22.0 SSE 1 - 1012.0 - 0.0 - - 5 - - - -
26/04:30am 23.0 SSW 4 - 1012.0 - 0.0 - - 9 - - - -
26/04:00am 23.2 S 5 - 1012.2 - 0.0 - - 6 - - - -
26/03:30am 23.0 SSW 7 - 1012.0 - 0.0 - - 8 - - - -
26/03:00am 23.1 SW 5 - 1012.0 - 0.0 - - 10 - - - -
26/02:30am 24.0 SSW 5 - 1012.0 - 0.0 - - 7 - - - -
26/02:16am 24.0 SSW 5 - 1012.0 - 0.0 - - 6 - - - -
26/02:00am 23.7 SSW 5 - 1012.4 - 0.0 - - 5 - - - -
26/01:44am 24.0 SSW 6 - 1012.0 - 0.0 - - 5 - - - -
26/01:30am 24.0 SSW 5 - 1012.0 - 0.0 - Partly cloudy 7 - - - -
26/01:00am 24.2 SSW 5 - 1012.7 - 0.0 - Partly cloudy 7 - - - -
26/12:53am 24.0 SW 5 - 1012.0 - 0.0 - Partly cloudy 7 - - - -
26/12:47am 24.0 SW 5 - 1012.0 - 0.0 - Partly cloudy 6 - - - -
26/12:43am 24.0 SW 5 - 1013.0 - 0.0 - Partly cloudy 5 - - - -
26/12:30am 24.0 SW 5 - 1013.0 - 0.0 - Partly cloudy 7 - - - -
26/12:00am 22.6 CALM 0 - 1012.9 - 0.0 - - 7 - - - -
 
Date/Time
WST
Temp
°C
Wind Pressure Rain since
9am
mm
Weather Cloud Vis
km
Sea
Height
m
Swell
Dir  Spd
kts
Gust
kts
hPa Trend Height
m
Period
s
Dir
25/11:30pm 23.0 CALM 0 - 1013.0 - 0.0 - - 9 - - - -
25/11:00pm 23.3 SW 1 - 1013.1 - 0.0 - - 10 - - - -
25/10:30pm 23.0 CALM 0 - 1013.0 - 0.0 - - 8 - - - -
25/10:00pm 23.1 CALM 0 - 1013.1 - 0.0 - - 9 - - - -
25/09:30pm 23.0 CALM 0 - 1013.0 - 0.0 - - 9 - - - -
25/09:00pm 23.8 SSW 1 - 1013.2 - 0.0 - - 8 - - - -
25/08:30pm 25.0 CALM 0 - 1013.0 - 0.0 - - 9 - - - -
25/08:00pm 24.9 NNW 1 - 1012.8 - 0.0 - - 10 - - - -
25/07:30pm 26.0 N 5 - 1012.0 - 0.0 - - 10 - - - -
25/07:00pm 26.0 NNE 6 - 1012.1 - 0.0 - - 10 - - - -
25/06:30pm 26.0 NNE 6 - 1011.0 - 0.0 - - 10 - - - -
25/06:00pm 26.5 NNE 7 - 1011.3 - 0.0 - - 10 - - - -
25/05:30pm 27.0 NNE 8 - 1011.0 - 0.0 - - 10 - - - -
25/05:00pm 27.3 NNE 9 - 1010.6 - 0.0 - - 10 - - - -
25/04:30pm 28.0 NNE 9 - 1010.0 - 0.0 - - 10 - - - -

Other Formats:

Comma delimited format used in spreadsheet applications
http://www.bom.gov.au/fwo/IDW60701/IDW60701.95101.axf

JavaScript Object Notation format (JSON) in row-major order
http://www.bom.gov.au/fwo/IDW60701/IDW60701.95101.json